User: anonymous   Login
Location: Piotrkow Trybunalski
(51.4000°N, 19.6830°E)
Time: 10:30:42
(UTC+01:00)
Language:

CZ-6A DEB - Orbit

View from above orbital plane
View from above orbital plane
View from above satellite
View from above satellite

Ground track
Ground track

The orbit data is extracted from the following two-line orbital elements,

1 54597U 22151MX  25316.31614154  .00007888  00000-0  27089-2 0  9992
2 54597  98.6751 335.6574 0070890 351.0052   8.9857 14.34925686156109
Epoch (UTC): 12 November 2025 07:35:14
Eccentricity: 0.0070890
inclination: 98.6751°
perigee height: 724 km
apogee height: 826 km
right ascension of ascending node: 335.6574°
argument of perigee: 351.0052°
revolutions per day: 14.34925686
mean anomaly at epoch: 8.9857°
orbit number at epoch: 15610

The dashed part of the orbit path shows where the satellite is in the earth's shadow,  

DLR